Location: DARK SKY Beskydy - Park tmavé oblohy, www.darkskybeskydy.cz
(49.4926°N, 18.5016°E)
Time: 13:53:01
(UTC+02:00)

ACS3 Solar Sail - Visible Passes

Search period start: 19 April 2026 00:00
Search period end: 29 April 2026 00:00
Orbit: 872 x 974 km, 97.2° (Epoch: 19 April)

Date Brightness Start Highest point End Pass type
(mag) Time Alt. Az. Time Alt. Az. Time Alt. Az.
19 Apr 2.9 01:00:09 10° NNE 01:05:21 30° E 01:05:53 29° E visible
19 Apr 2.0 02:42:11 10° N 02:48:02 55° WNW 02:49:26 45° WSW visible
19 Apr 3.8 04:26:57 10° NNW 04:29:11 12° NW 04:31:27 10° WNW visible
20 Apr 2.7 01:09:22 10° NNE 01:14:51 35° E 01:15:29 34° ESE visible
20 Apr 2.2 02:51:38 10° N 02:57:22 47° WNW 02:59:02 38° WSW visible
20 Apr 3.9 04:37:24 10° NW 04:38:22 10° NW 04:39:20 10° WNW visible
21 Apr 2.5 01:18:35 10° NNE 01:24:17 41° E 01:25:02 40° ESE visible
21 Apr 2.4 03:01:05 10° N 03:06:38 40° WNW 03:08:35 32° WSW visible
22 Apr 2.2 01:27:47 10° NNE 01:33:38 49° E 01:34:32 45° ESE visible
22 Apr 2.7 03:10:28 10° N 03:15:51 35° WNW 03:18:04 27° WSW visible
23 Apr 2.0 01:36:57 10° NNE 01:42:56 57° E 01:43:59 51° SE visible
23 Apr 2.9 03:19:51 10° N 03:24:58 30° WNW 03:27:31 22° W visible
24 Apr 3.9 00:06:22 10° ENE 00:08:40 12° E 00:09:50 12° E visible
24 Apr 1.9 01:46:05 10° NNE 01:52:09 68° E 01:53:22 55° SSE visible
24 Apr 3.1 03:29:11 10° N 03:34:03 26° WNW 03:36:54 19° W visible
25 Apr 3.7 00:14:42 10° NE 00:18:00 15° E 00:19:11 14° E visible
25 Apr 1.7 01:55:12 10° NNE 02:01:19 79° ESE 02:02:42 56° S visible
25 Apr 3.2 03:38:30 10° N 03:43:03 23° WNW 03:46:13 15° W visible
26 Apr 3.6 00:23:17 10° NE 00:27:15 18° E 00:28:28 17° E visible
26 Apr 1.7 02:04:17 10° NNE 02:10:24 89° WNW 02:11:59 53° SSW visible
26 Apr 3.4 03:47:49 10° NNW 03:52:00 20° WNW 03:55:30 12° W visible
27 Apr 3.4 00:31:57 10° NE 00:36:26 21° E 00:37:41 20° ESE visible
27 Apr 1.7 02:13:20 10° N 02:19:26 77° WNW 02:21:12 49° SSW visible
27 Apr 3.6 03:57:07 10° NNW 04:00:52 17° NW 04:04:38 10° W visible
28 Apr 3.2 00:40:40 10° NE 00:45:33 25° E 00:46:52 23° ESE visible
28 Apr 1.8 02:22:21 10° N 02:28:24 67° WNW 02:30:23 43° SW visible
28 Apr 3.7 04:06:27 10° NNW 04:09:40 15° NW 04:12:54 10° W visible
